ボアッティーニ彗星

C/2007 W1 ( Boattini )

English version
Home page
Total 6,336 html files since Dec. 4, 1995
Updated on July 17, 2008

---------------------------------------------------------------------

・ プロフィール

発見日 2007年11月20日
発見光度 18.1等
発見者 A. Boattini (Mt. Lemmon Survey)

・ 写真集

・ 軌道要素

Epoch 2008 June 23.0 TT = JDT 2454640.5
T 2008 June 24.88234 TT                                 MPC
q   0.8495906            (2000.0)            P               Q
z  -0.0002036      Peri.  306.55717     +0.19732512     +0.97755073
 +/-0.0000125      Node   334.52352     -0.83561676     +0.12831130
e   1.0001730      Incl.    9.88923     -0.51264747     +0.16712507

・ 星図

・ 光度変化

        m1 = 8.5 + 5 logΔ + 12.0 log r

---------------------------------------------------------------------

軌道要素はM.P.E.C. 2008-E10に掲載されたものです。
星図はステラナビゲータ Ver.8 (アストロアーツ) で作成したものです。
光度グラフはComet for Windowsで作成したものです。

---------------------------------------------------------------------

Copyright(C) 1995-2008 Seiichi Yoshida (comet@aerith.net). All rights reserved.